SCP
0 0 0 0 0 0 0 0 0 0 0 0 0 0 0 0 0 0 0 0 0 0 0 0 0 0 0 0 0 0 0 0 0 0 0 0 0 0 0 0 0 0 0
0 0 0 0 0 0 0 0 0 0 0 0 0 0 0 0 0 0 0 0 0 0 0 0 0 0 0 0 0 0 0 0 0 0 0 0 0 0 0 0 0 0 0
0 0 0 0 0 0 0 0 0 0 0 0 0 0 0 0 0 0 0 0 0 0 0 0 0 0 0 0 0 0 0 0 0 0 0 0 0 0 0 0 0 0 0
0 0 0 0 0 0 0 0 0 0 0 0 0 0 0 0 0 0 0 0 0 0 0 0 0 0 0 0 0 0 0 0 0 0 0 0 0 0 0 0 0 0 0
0 0 0 0 0 0 0 0 0 0 0 0 0 0 0 0 0 0 0 0 0 0 0 0 0 0 0 0 0 0 0 0 0 0 0 0 0 0 0 0 0 0 0
0 0 0 0 1 1 0 0 0 0 0 0 0 0 0 0 0 0 0 0 0 0 0 0 0 0 0 0 0 0 0 0 0 0 0 0 0 0 0 0 0 0 0
0 0 0 0 1 1 1 0 0 0 0 0 0 0 0 0 0 0 0 0 0 0 0 0 0 0 0 0 0 0 0 0 0 0 0 0 0 0 0 0 0 0 0
0 0 0 1 1 1 1 0 0 0 0 0 0 0 0 0 0 0 0 0 0 0 0 0 0 0 0 0 0 0 0 0 0 0 0 0 0 0 0 0 0 0 0
1 1 1 1 1 1 0 0 0 0 0 0 0 0 0 0 0 0 0 0 0 0 0 0 0 0 0 0 0 0 0 0 0 0 0 0 0 0 0 0 0 0 0
1 1 1 1 1 0 0 0 0 0 0 0 0 0 0 0 0 0 0 0 0 0 0 0 0 0 0 0 0 0 0 0 0 0 0 0 0 0 0 0 0 0 0
1 0 0 0 0 0 0 0 0 0 0 0 0 0 0 0 0 0 0 0 0 0 0 0 0 0 0 0 0 0 0 0 0 0 0 0 0 0 0 0 0 0 0
1 0 0 0 0 0 0 0 0 0 0 0 0 0 0 0 0 0 0 0 0 0 0 0 0 0 0 0 0 0 0 0 0 0 0 0 0 0 0 0 0 0 0
1 1 0 0 0 0 0 0 0 0 0 0 0 0 0 0 0 0 0 0 0 0 0 0 0 0 0 0 0 0 0 0 0 0 0 0 0 0 0 0 0 0 0
1 1 0 0 0 0 0 0 0 0 0 0 0 0 0 0 0 0 0 0 0 0 0 0 0 0 0 0 0 0 0 0 0 0 0 0 0 0 0 0 0 0 0
1 1 1 1 0 0 0 0 0 0 0 0 0 0 0 0 0 0 0 0 0 0 0 0 0 0 0 0 0 0 0 0 0 0 0 0 0 0 0 0 0 0 0
1 1 1 0 0 0 0 0 0 0 0 0 0 0 0 0 0 0 0 0 0 0 0 0 0 0 0 0 0 0 0 0 0 0 0 0 0 0 0 0 0 0 0
1 1 0 0 0 0 0 0 0 0 0 0 0 0 0 0 0 0 0 0 0 0 0 0 0 0 0 0 0 0 0 0 0 0 0 0 0 0 0 0 0 0 0
0 0 0 0 0 0 0 0 0 0 0 0 0 0 0 0 0 0 0 0 0 0 0 0 0 0 0 0 0 0 0 0 0 0 0 0 0 0 0 0 0 0 0
0 0 0 0 0 0 0 0 0 0 0 0 0 0 0 0 0 0 0 0 0 0 0 0 0 0 0 0 0 0 0 0 0 0 0 0 0 0 0 0 0 0 0
0 0 0 0 0 0 0 0 0 0 0 0 0 0 0 0 0 0 0 0 0 0 0 0 0 0 0 0 0 0 0 0 0 0 0 0 0 0 0 0 0 0 0
0 0 0 0 0 0 0 0 0 0 0 0 0 0 0 0 0 0 0 0 0 0 0 0 0 0 0 0 0 0 0 0 0 0 0 0 0 0 0 0 0 0 0
0 0 0 0 0 0 0 0 0 0 0 0 0 0 0 0 0 0 0 0 0 0 0 0 0 0 0 0 0 0 0 0 0 0 0 0 0 0 0 0 0 0 0
0 0 0 0 0 0 0 0 0 0 0 0 0 0 0 0 0 0 0 0 0 0 0 0 0 0 0 0 0 0 0 0 0 0 0 0 0 0 0 0 0 0 0
0 0 0 0 0 0 0 0 0 0 0 0 0 0 0 0 0 0 0 0 0 0 0 0 0 0 0 0 0 0 0 0 0 0 0 0 0 0 0 0 0 0 0
0 0 0 0 0 0 0 0 0 0 0 0 0 0 0 0 0 0 0 0 0 0 0 0 0 0 0 0 0 0 0 0 0 0 0 0 0 0 0 0 0 0 0
0 0 0 0 0 0 0 0 0 0 0 0 0 0 0 0 0 0 0 0 0 0 0 0 0 0 0 0 0 0 0 0 0 0 0 0 0 0 0 0 0 0 0
Wind_Speed
3 3 3 3 3 2 2 2 2 2 2 2 2 3 3 3 3 3 3 3 3 3 3 3 3 3 2 2 2 2 1 1 1 2 2 1 2 1 1 2 1 1 1
3 3 3 3 3 2 2 2 2 2 2 2 3 3 3 3 3 3 3 3 3 3 3 3 3 3 4 3 3 2 2 1 1 2 3 2 2 2 1 2 2 2 2
4 4 3 3 3 2 2 2 2 2 2 2 2 2 3 3 3 3 3 3 3 3 3 3 3 3 4 3 3 3 3 3 2 2 3 2 2 2 2 2 2 2 3
4 4 3 3 3 2 2 2 2 2 2 2 2 2 3 4 4 5 5 4 4 4 4 4 4 4 4 4 4 4 4 3 3 2 3 3 2 3 1 2 2 2 3
4 4 3 3 3 2 2 2 2 3 3 3 2 3 3 3 4 5 5 5 4 4 3 3 3 4 5 4 4 4 4 3 3 2 3 3 3 3 3 2 3 3 3
4 4 3 3 3 2 2 2 2 2 2 3 2 3 3 4 6 7 6 4 4 3 3 3 3 3 4 5 6 6 5 3 3 2 2 3 4 4 3 3 3 3 4
5 4 4 3 2 2 1 2 1 1 1 2 2 2 3 3 5 6 7 4 4 3 3 2 3 5 6 4 5 5 5 7 6 4 3 4 4 4 3 4 4 4 5
5 4 3 3 3 2 1 1 0 1 1 1 1 2 2 2 4 5 7 5 3 3 3 3 3 4 6 7 5 5 4 5 6 4 3 5 5 4 4 5 5 5 5
5 4 4 3 3 2 1 0 0 1 1 0 0 0 1 1 3 5 6 4 3 2 3 4 4 3 8 10 6 5 5 5 7 8 9 9 10 10 7 3 3 3 5
4 4 4 3 3 2 1 0 0 1 0 1 1 0 1 2 3 4 5 3 4 3 2 2 4 5 8 9 5 4 5 6 7 8 8 8 7 7 8 3 2 3 4
4 4 4 3 3 2 2 1 0 0 1 1 1 1 1 2 2 2 3 2 3 4 3 2 2 7 9 11 9 5 7 8 6 6 5 5 4 4 4 3 3 2 3
5 4 3 3 3 3 2 1 0 0 0 1 1 1 1 1 2 0 2 3 5 4 4 3 3 8 10 12 9 9 12 11 5 4 4 4 4 3 4 4 4 4 4
4 4 3 3 3 3 2 1 1 0 0 1 0 1 1 1 0 1 3 5 7 4 4 7 9 11 10 8 9 11 9 5 4 4 4 4 3 4 4 4 5 5 5
4 3 3 3 2 2 2 1 1 0 0 1 1 1 2 1 1 2 2 3 5 5 4 7 10 10 8 8 8 6 4 4 4 3 4 4 3 3 3 3 4 4 4
3 3 3 2 2 2 2 1 1 1 1 0 0 1 1 2 2 4 3 3 3 4 5 4 4 4 4 4 4 4 3 3 4 3 3 4 4 4 4 4 4 4 4
3 3 2 2 2 1 1 1 1 1 2 1 2 2 2 3 4 5 6 7 8 10 7 4 5 5 4 4 4 4 3 3 3 3 3 3 4 4 5 4 4 4 5
3 3 2 2 1 1 1 1 1 2 3 4 4 5 5 5 6 7 8 8 9 9 4 4 5 4 4 4 4 4 4 4 3 4 4 4 4 4 5 5 5 5 5
3 3 2 1 1 1 1 1 1 1 2 2 4 6 6 6 6 7 8 6 5 4 3 4 5 4 4 4 4 4 4 4 4 4 4 4 4 5 5 5 5 6 6
2 2 2 1 1 0 1 1 1 2 2 2 2 3 5 5 6 7 6 3 4 4 4 4 4 4 4 4 4 4 4 4 5 4 4 5 4 5 5 5 5 8 7
2 2 1 0 1 1 1 1 1 2 2 2 2 2 2 2 2 3 3 3 4 4 4 4 4 4 4 4 4 4 4 5 5 5 4 4 4 5 5 6 6 6 6
2 2 2 1 1 1 1 1 2 2 2 2 2 3 3 3 3 4 3 3 4 4 4 4 4 4 4 4 4 4 5 5 5 5 5 5 5 5 5 6 6 7 7
1 1 1 1 1 1 1 1 2 2 3 3 3 3 5 3 3 3 3 4 4 3 4 4 4 4 4 4 4 5 5 5 5 5 5 5 5 6 6 6 7 7 7
1 1 1 1 1 1 1 2 2 3 3 3 3 3 3 3 3 3 4 4 3 3 3 3 4 4 4 4 4 5 5 5 5 6 6 6 6 6 6 7 8 9 8
1 1 1 1 1 1 2 2 2 3 3 3 3 3 3 3 3 4 4 3 3 3 4 4 5 7 8 6 5 4 4 6 6 6 8 7 7 6 6 7 8 9 9
0 0 1 1 1 1 2 2 3 3 3 3 3 3 3 3 4 4 4 3 4 4 5 6 5 6 8 10 8 7 9 10 9 7 7 6 8 8 8 9 8 9 9
0 1 1 1 1 1 2 2 3 3 3 3 3 3 3 4 4 4 4 4 4 5 6 5 7 8 10 8 9 10 11 11 12 12 8 6 7 8 8 8 10 10 9
Wind_Direction
117 108 111 107 97 77 53 66 59 56 56 49 47 44 44 29 21 28 12 8 3 356 355 11 4 8 5 349 355 3 359 18 312 305 318 322 345 325 322 294 267 236 263
115 103 97 94 88 71 53 48 42 48 45 46 42 38 36 32 22 14 1 6 0 356 354 10 12 13 5 353 353 348 346 339 338 312 310 322 325 310 289 293 297 286 271
115 108 101 95 91 78 60 42 33 43 47 56 46 42 37 21 14 5 7 358 353 356 359 7 10 22 6 352 354 355 350 349 345 330 311 308 303 310 322 317 311 300 293
115 109 102 93 90 84 66 54 25 20 38 53 48 46 44 29 18 9 3 355 353 359 7 10 17 29 15 2 358 350 347 342 337 336 321 320 314 307 323 306 309 298 290
122 112 104 95 86 74 57 56 39 26 22 25 42 39 41 38 26 19 357 351 349 354 6 9 24 34 27 17 7 349 347 337 333 335 324 328 324 330 320 303 306 299 288
127 121 116 106 97 89 67 42 49 45 13 9 29 52 46 35 33 22 4 345 337 344 353 355 2 18 12 6 355 346 340 333 322 318 313 312 307 309 317 321 316 317 304
132 126 124 121 112 110 102 79 63 62 27 8 16 51 69 52 27 9 357 337 320 328 340 351 355 19 18 356 340 332 335 330 323 301 298 297 297 302 310 309 301 294 281
139 134 133 134 130 120 97 86 83 82 77 42 25 34 74 49 20 11 351 328 318 337 357 14 24 23 10 358 341 342 336 329 316 308 292 287 292 291 280 277 276 286 286
135 136 136 129 124 116 110 84 6 42 47 335 139 65 95 64 39 21 356 325 325 343 11 24 22 21 358 354 346 335 327 319 320 319 307 299 298 299 296 299 296 297 296
135 134 128 125 128 137 148 143 37 52 358 326 357 35 87 91 73 32 4 336 335 339 356 21 24 5 347 348 341 328 319 313 320 318 311 305 299 295 298 280 272 288 295
129 126 128 135 144 142 130 114 102 55 344 322 336 357 71 117 116 53 12 349 337 333 335 332 331 339 333 328 323 308 299 304 303 301 303 306 309 310 303 292 279 267 278
114 119 130 142 149 127 120 123 125 60 285 294 318 329 318 135 126 84 332 327 330 323 318 321 316 321 322 317 312 300 304 310 300 300 302 301 302 304 304 302 295 285 271
125 133 142 141 129 123 133 151 158 212 258 292 319 305 311 357 75 301 302 311 316 312 313 318 314 310 309 305 295 296 301 299 295 295 292 287 286 292 303 309 305 299 295
144 148 141 133 126 118 107 110 109 51 352 346 351 339 331 346 10 357 328 313 313 315 317 313 310 304 295 289 293 293 284 278 283 280 286 288 298 305 304 304 303 302 302
139 129 123 114 111 101 93 65 98 89 128 158 317 325 328 322 322 332 324 315 315 305 309 300 294 294 291 288 290 290 288 295 294 289 291 299 301 301 297 299 296 298 291
134 128 119 112 108 113 121 56 37 171 166 173 215 241 262 261 279 302 307 305 304 304 308 293 288 285 284 289 293 294 293 295 295 294 295 295 295 295 294 295 296 291 289
122 115 111 114 118 141 173 192 256 272 253 251 252 256 253 266 283 292 295 295 297 301 293 280 280 283 286 286 284 285 287 287 290 289 287 288 288 288 289 290 289 287 285
114 114 112 115 129 180 225 237 238 250 268 267 254 254 257 263 273 280 286 299 298 289 272 276 281 283 284 287 288 289 290 293 292 289 287 286 286 287 289 289 289 286 284
117 122 121 123 149 212 248 265 277 286 284 280 279 269 259 270 275 277 282 277 277 279 277 281 285 288 288 288 290 292 291 289 291 292 290 289 289 289 287 283 285 290 288
120 128 116 144 233 238 252 268 275 279 286 291 289 287 285 294 290 287 279 275 278 283 284 283 285 288 290 290 291 291 291 291 293 290 289 288 286 287 288 290 290 291 286
129 147 180 225 238 246 263 283 283 282 284 287 282 281 283 276 271 276 280 280 280 284 287 288 288 290 289 288 287 288 289 288 288 288 289 287 285 284 282 281 284 285 285
146 171 197 218 239 256 286 289 290 286 285 288 285 284 285 277 275 280 283 283 283 283 287 290 291 288 286 287 289 289 288 288 288 288 288 288 287 285 284 283 283 283 283
166 205 246 260 264 280 282 277 281 284 284 282 284 289 287 286 287 286 286 287 292 295 296 296 295 294 293 290 287 287 290 292 291 291 293 292 290 288 287 285 283 284 284
185 218 253 271 274 268 275 283 285 286 289 292 293 293 291 290 291 293 296 299 300 298 298 298 296 297 298 299 296 296 298 301 303 300 297 294 291 288 287 286 284 283 283
188 263 273 274 281 286 292 296 298 301 305 306 306 307 305 303 302 302 303 303 304 300 300 298 294 297 300 301 301 299 300 302 302 301 297 290 286 285 284 284 284 286 281
210 291 298 301 299 298 299 300 301 305 305 307 310 310 308 306 306 305 305 302 299 296 295 293 292 296 299 300 299 299 300 300 299 297 296 288 283 281 283 282 283 283 280